| time (UTC) | temp F | wind direction | speed knots | gust knots | rain 1hr in | rain 24hr in | rain mn in | humidity % | barometer mb |
| 20260507223904 | 48 | 99 | 0.0 | 0.0 | 0.00 | 0.00 | 0.00 | 89 | 1015.5 |
| 20260507223405 | 48 | 99 | 0.0 | 0.0 | 0.00 | 0.00 | 0.00 | 88 | 1015.5 |
| 20260507222903 | 48 | 99 | 0.0 | 0.0 | 0.00 | 0.00 | 0.00 | 88 | 1015.5 |
| 20260507221904 | 48 | 98 | 0.0 | 0.0 | 0.00 | 0.00 | 0.00 | 88 | 1015.5 |
| 20260507220904 | 48 | 95 | 0.0 | 0.0 | 0.00 | 0.00 | 0.00 | 88 | 1015.5 |
| 20260507220403 | 48 | 95 | 0.0 | 0.0 | 0.00 | 0.00 | 0.00 | 87 | 1015.5 |
| 20260507215904 | 49 | 96 | 0.0 | 0.9 | 0.00 | 0.00 | 0.00 | 87 | 1015.5 |
| 20260507215404 | 49 | 96 | 0.9 | 2.6 | 0.00 | 0.00 | 0.00 | 87 | 1015.5 |
| 20260507214903 | 49 | 89 | 0.0 | 0.0 | 0.00 | 0.00 | 0.00 | 87 | 1015.5 |
| 20260507213904 | 49 | 87 | 0.0 | 0.0 | 0.00 | 0.00 | 0.00 | 87 | 1015.5 |
| 20260507213404 | 49 | 87 | 0.0 | 0.0 | 0.00 | 0.00 | 0.00 | 87 | 1015.5 |
| 20260507212905 | 49 | 77 | 0.0 | 1.7 | 0.00 | 0.00 | 0.00 | 87 | 1015.5 |
| 20260507212404 | 50 | 71 | 0.0 | 0.0 | 0.00 | 0.00 | 0.00 | 87 | 1015.5 |
| 20260507211404 | 50 | 69 | 0.9 | 2.6 | 0.00 | 0.00 | 0.00 | 87 | 1015.5 |
| 20260507210404 | 50 | 68 | 0.9 | 2.6 | 0.00 | 0.00 | 0.00 | 88 | 1015.5 |
| 20260507205904 | 50 | 94 | 0.0 | 0.0 | 0.00 | 0.00 | 0.00 | 88 | 1015.4 |
| 20260507205404 | 49 | 94 | 0.0 | 0.0 | 0.00 | 0.00 | 0.00 | 88 | 1015.4 |
| 20260507204903 | 49 | 93 | 0.9 | 2.6 | 0.00 | 0.00 | 0.00 | 88 | 1015.4 |
| 20260507204404 | 49 | 87 | 0.0 | 1.7 | 0.00 | 0.00 | 0.00 | 88 | 1015.2 |
| 20260507203404 | 49 | 84 | 1.7 | 4.3 | 0.00 | 0.00 | 0.00 | 88 | 1015.3 |
| 20260507202403 | 48 | 91 | 0.0 | 0.0 | 0.00 | 0.00 | 0.00 | 87 | 1015.3 |
| 20260507201904 | 49 | 91 | 0.0 | 0.0 | 0.00 | 0.00 | 0.00 | 86 | 1015.0 |
| 20260507201404 | 49 | 89 | 0.0 | 0.0 | 0.00 | 0.00 | 0.00 | 86 | 1015.0 |
| 20260507200904 | 49 | 89 | 0.0 | 0.0 | 0.00 | 0.00 | 0.00 | 86 | 1015.0 |
| 20260507195903 | 50 | 90 | 0.0 | 0.0 | 0.00 | 0.00 | 0.00 | 85 | 1015.0 |
| 20260507195404 | 50 | 90 | 0.0 | 0.0 | 0.00 | 0.00 | 0.00 | 85 | 1015.0 |
| 20260507194904 | 51 | 90 | 0.0 | 0.0 | 0.00 | 0.00 | 0.00 | 84 | 1015.0 |
| 20260507194404 | 51 | 91 | 0.0 | 0.0 | 0.00 | 0.00 | 0.00 | 83 | 1014.9 |
| 20260507193405 | 52 | 91 | 0.0 | 0.0 | 0.00 | 0.00 | 0.00 | 82 | 1014.9 |
| 20260507192903 | 52 | 91 | 0.0 | 0.0 | 0.00 | 0.00 | 0.00 | 82 | 1014.8 |
| 20260507192404 | 52 | 91 | 0.0 | 0.0 | 0.00 | 0.00 | 0.00 | 81 | 1014.8 |
| 20260507191904 | 52 | 90 | 0.0 | 0.9 | 0.00 | 0.00 | 0.00 | 80 | 1014.8 |
| 20260507191404 | 53 | 89 | 0.9 | 2.6 | 0.00 | 0.00 | 0.00 | 79 | 1014.7 |
| 20260507190904 | 53 | 106 | 0.9 | 2.6 | 0.00 | 0.00 | 0.00 | 79 | 1014.7 |
| 20260507190404 | 53 | 121 | 1.7 | 2.6 | 0.00 | 0.00 | 0.00 | 78 | 1014.7 |
| 20260507185904 | 54 | 115 | 2.6 | 4.3 | 0.00 | 0.00 | 0.00 | 77 | 1014.7 |
| 20260507184904 | 54 | 115 | 0.9 | 4.3 | 0.00 | 0.00 | 0.00 | 75 | 1014.7 |
| 20260507184404 | 55 | 120 | 1.7 | 5.2 | 0.00 | 0.00 | 0.00 | 75 | 1014.4 |
| 20260507183904 | 55 | 164 | 2.6 | 7.0 | 0.00 | 0.00 | 0.00 | 74 | 1014.4 |
| 20260507183403 | 55 | 102 | 0.9 | 2.6 | 0.00 | 0.00 | 0.00 | 74 | 1014.4 |
| 20260507182404 | 55 | 95 | 2.6 | 4.3 | 0.00 | 0.00 | 0.00 | 73 | 1014.4 |
| 20260507181904 | 55 | 112 | 0.9 | 4.3 | 0.00 | 0.00 | 0.00 | 73 | 1014.4 |
| 20260507181404 | 55 | 97 | 2.6 | 4.3 | 0.00 | 0.00 | 0.00 | 72 | 1014.4 |
| 20260507180404 | 56 | 104 | 2.6 | 5.2 | 0.00 | 0.00 | 0.00 | 70 | 1014.4 |
| 20260507175904 | 56 | 68 | 2.6 | 5.2 | 0.00 | 0.00 | 0.00 | 69 | 1014.4 |
| 20260507175404 | 56 | 129 | 3.5 | 6.1 | 0.00 | 0.00 | 0.00 | 68 | 1014.4 |
| 20260507174904 | 56 | 119 | 4.3 | 7.0 | 0.00 | 0.00 | 0.00 | 68 | 1014.4 |
| 20260507174404 | 57 | 156 | 0.9 | 4.3 | 0.00 | 0.00 | 0.00 | 69 | 1014.4 |
| 20260507173904 | 57 | 105 | 2.6 | 7.8 | 0.00 | 0.00 | 0.00 | 68 | 1014.4 |
| 20260507173404 | 57 | 68 | 3.5 | 7.0 | 0.00 | 0.00 | 0.00 | 68 | 1014.4 |
| 20260507172904 | 57 | 122 | 3.5 | 7.0 | 0.00 | 0.00 | 0.00 | 67 | 1014.5 |
| 20260507172404 | 57 | 76 | 2.6 | 6.1 | 0.00 | 0.00 | 0.00 | 67 | 1014.5 |
| 20260507171404 | 57 | 74 | 3.5 | 7.0 | 0.00 | 0.00 | 0.00 | 66 | 1014.5 |
| 20260507170904 | 57 | 94 | 4.3 | 7.0 | 0.00 | 0.00 | 0.00 | 66 | 1014.5 |
| 20260507165904 | 58 | 167 | 1.7 | 7.0 | 0.00 | 0.00 | 0.00 | 68 | 1014.6 |
| 20260507165404 | 58 | 108 | 3.5 | 6.1 | 0.00 | 0.00 | 0.00 | 66 | 1014.6 |
| 20260507164404 | 58 | 107 | 2.6 | 7.0 | 0.00 | 0.00 | 0.00 | 64 | 1014.6 |
| 20260507163404 | 59 | 103 | 4.3 | 7.8 | 0.00 | 0.00 | 0.00 | 62 | 1014.6 |
| 20260507162904 | 58 | 98 | 2.6 | 7.0 | 0.00 | 0.00 | 0.00 | 62 | 1014.6 |
| 20260507162404 | 59 | 96 | 3.5 | 6.1 | 0.00 | 0.00 | 0.00 | 59 | 1014.6 |
| 20260507161904 | 59 | 73 | 1.7 | 7.0 | 0.00 | 0.00 | 0.00 | 61 | 1014.5 |
| 20260507161404 | 59 | 79 | 3.5 | 6.1 | 0.00 | 0.00 | 0.00 | 59 | 1014.5 |
| 20260507160904 | 59 | 118 | 2.6 | 7.8 | 0.00 | 0.00 | 0.00 | 60 | 1014.7 |
| 20260507160403 | 59 | 71 | 2.6 | 6.1 | 0.00 | 0.00 | 0.00 | 60 | 1014.7 |
| 20260507155904 | 59 | 129 | 3.5 | 6.1 | 0.00 | 0.00 | 0.00 | 56 | 1014.7 |
| 20260507155404 | 59 | 81 | 2.6 | 7.8 | 0.00 | 0.00 | 0.00 | 57 | 1014.7 |
| 20260507154904 | 59 | 68 | 0.9 | 4.3 | 0.00 | 0.00 | 0.00 | 56 | 1014.7 |
| 20260507154404 | 59 | 116 | 3.5 | 7.0 | 0.00 | 0.00 | 0.00 | 57 | 1014.7 |
| 20260507153904 | 59 | 63 | 3.5 | 6.1 | 0.00 | 0.00 | 0.00 | 56 | 1014.8 |
| 20260507152404 | 60 | 98 | 4.3 | 7.8 | 0.00 | 0.00 | 0.00 | 54 | 1014.8 |
| 20260507151904 | 60 | 57 | 2.6 | 8.7 | 0.00 | 0.00 | 0.00 | 56 | 1014.8 |
| 20260507151403 | 59 | 137 | 1.7 | 6.1 | 0.00 | 0.00 | 0.00 | 56 | 1014.8 |
| 20260507150404 | 59 | 165 | 2.6 | 7.0 | 0.00 | 0.00 | 0.00 | 55 | 1014.8 |
| 20260507145904 | 59 | 91 | 3.5 | 7.0 | 0.00 | 0.00 | 0.00 | 57 | 1014.9 |
| 20260507145404 | 59 | 113 | 1.7 | 6.1 | 0.00 | 0.00 | 0.00 | 53 | 1014.9 |
| 20260507144903 | 59 | 129 | 3.5 | 7.0 | 0.00 | 0.00 | 0.00 | 54 | 1014.9 |
| 20260507144404 | 60 | 105 | 2.6 | 6.1 | 0.00 | 0.00 | 0.00 | 56 | 1014.9 |
| 20260507143903 | 60 | 102 | 1.7 | 7.0 | 0.00 | 0.00 | 0.00 | 56 | 1014.9 |
| 20260507143404 | 61 | 112 | 2.6 | 6.1 | 0.00 | 0.00 | 0.00 | 54 | 1014.9 |
| 20260507141904 | 62 | 149 | 3.5 | 7.0 | 0.00 | 0.00 | 0.00 | 51 | 1015.2 |
| 20260507135904 | 62 | 127 | 0.9 | 7.8 | 0.00 | 0.00 | 0.00 | 53 | 1015.2 |
| 20260507135403 | 62 | 128 | 4.3 | 6.1 | 0.00 | 0.00 | 0.00 | 53 | 1015.2 |
| 20260507134904 | 62 | 35 | 1.7 | 5.2 | 0.00 | 0.00 | 0.00 | 51 | 1015.2 |
| 20260507133903 | 61 | 109 | 1.7 | 7.0 | 0.00 | 0.00 | 0.00 | 53 | 1015.2 |
| 20260507133404 | 61 | 160 | 5.2 | 10.4 | 0.00 | 0.00 | 0.00 | 53 | 1015.2 |
| 20260507132904 | 60 | 126 | 4.3 | 7.0 | 0.00 | 0.00 | 0.00 | 52 | 1015.3 |
| 20260507132404 | 60 | 192 | 3.5 | 7.8 | 0.00 | 0.00 | 0.00 | 57 | 1015.3 |
| 20260507131905 | 61 | 52 | 2.6 | 7.8 | 0.00 | 0.00 | 0.00 | 58 | 1015.3 |
| 20260507131404 | 61 | 87 | 3.5 | 7.0 | 0.00 | 0.00 | 0.00 | 60 | 1015.3 |
| 20260507130904 | 60 | 160 | 2.6 | 7.8 | 0.00 | 0.00 | 0.00 | 60 | 1015.3 |
| 20260507130404 | 59 | 133 | 2.6 | 7.0 | 0.00 | 0.00 | 0.00 | 64 | 1015.3 |
| 20260507125404 | 59 | 87 | 2.6 | 7.8 | 0.00 | 0.00 | 0.00 | 62 | 1015.4 |
| 20260507124903 | 59 | 106 | 4.3 | 7.0 | 0.00 | 0.00 | 0.00 | 62 | 1015.4 |
| 20260507123903 | 57 | 109 | 2.6 | 7.0 | 0.00 | 0.00 | 0.00 | 66 | 1015.4 |
| 20260507123404 | 57 | 269 | 2.6 | 6.1 | 0.00 | 0.00 | 0.00 | 65 | 1015.4 |
| 20260507122904 | 57 | 144 | 2.6 | 6.1 | 0.00 | 0.00 | 0.00 | 65 | 1015.4 |
| 20260507122404 | 58 | 111 | 2.6 | 8.7 | 0.00 | 0.00 | 0.00 | 67 | 1015.4 |
| 20260507121903 | 58 | 144 | 1.7 | 5.2 | 0.00 | 0.00 | 0.00 | 66 | 1015.5 |
| 20260507121404 | 58 | 171 | 4.3 | 7.8 | 0.00 | 0.00 | 0.00 | 66 | 1015.6 |
| 20260507120903 | 58 | 111 | 1.7 | 7.0 | 0.00 | 0.00 | 0.00 | 66 | 1015.6 |
| 20260507120404 | 58 | 174 | 1.7 | 7.0 | 0.00 | 0.00 | 0.00 | 66 | 1015.6 |
| 20260507115404 | 58 | 118 | 4.3 | 7.0 | 0.00 | 0.00 | 0.00 | 65 | 1015.4 |
| 20260507114904 | 58 | 177 | 2.6 | 7.0 | 0.00 | 0.00 | 0.00 | 64 | 1015.4 |
| 20260507114404 | 59 | 93 | 3.5 | 7.0 | 0.00 | 0.00 | 0.00 | 66 | 1015.4 |
| 20260507113903 | 59 | 169 | 2.6 | 7.0 | 0.00 | 0.00 | 0.00 | 65 | 1015.4 |
| 20260507113404 | 60 | 72 | 3.5 | 7.8 | 0.00 | 0.00 | 0.00 | 65 | 1015.4 |
| 20260507112904 | 59 | 81 | 3.5 | 7.8 | 0.00 | 0.00 | 0.00 | 64 | 1015.4 |
| 20260507112404 | 58 | 122 | 2.6 | 10.4 | 0.00 | 0.00 | 0.00 | 70 | 1015.4 |
| 20260507111905 | 58 | 113 | 3.5 | 7.8 | 0.00 | 0.00 | 0.00 | 68 | 1015.4 |
| 20260507111403 | 58 | 94 | 2.6 | 10.4 | 0.00 | 0.00 | 0.00 | 67 | 1015.5 |
| 20260507110904 | 58 | 116 | 2.6 | 7.0 | 0.00 | 0.00 | 0.00 | 66 | 1015.5 |
| 20260507105904 | 58 | 113 | 2.6 | 10.4 | 0.00 | 0.00 | 0.00 | 68 | 1015.5 |
| 20260507105404 | 58 | 95 | 3.5 | 7.0 | 0.00 | 0.00 | 0.00 | 67 | 1015.5 |
| 20260507104904 | 59 | 103 | 3.5 | 7.0 | 0.00 | 0.00 | 0.00 | 66 | 1015.5 |
| 20260507104404 | 59 | 143 | 2.6 | 7.8 | 0.00 | 0.00 | 0.00 | 68 | 1015.6 |
| 20260507103904 | 57 | 151 | 2.6 | 5.2 | 0.00 | 0.00 | 0.00 | 68 | 1015.6 |
| 20260507103404 | 57 | 101 | 2.6 | 6.1 | 0.00 | 0.00 | 0.00 | 68 | 1015.6 |
| 20260507102904 | 58 | 80 | 5.2 | 10.4 | 0.00 | 0.00 | 0.00 | 68 | 1015.6 |
| 20260507102404 | 57 | 141 | 2.6 | 7.0 | 0.00 | 0.00 | 0.00 | 67 | 1015.6 |
| 20260507101903 | 57 | 127 | 4.3 | 8.7 | 0.00 | 0.00 | 0.00 | 68 | 1015.7 |
| 20260507101404 | 58 | 131 | 4.3 | 7.8 | 0.00 | 0.00 | 0.00 | 67 | 1015.7 |
| 20260507100904 | 58 | 132 | 5.2 | 12.2 | 0.00 | 0.00 | 0.00 | 68 | 1015.7 |
| 20260507100404 | 58 | 132 | 3.5 | 7.0 | 0.00 | 0.00 | 0.00 | 69 | 1015.7 |
| 20260507095404 | 59 | 183 | 2.6 | 6.1 | 0.00 | 0.00 | 0.00 | 67 | 1015.6 |
| 20260507094903 | 58 | 103 | 4.3 | 7.8 | 0.00 | 0.00 | 0.00 | 68 | 1015.6 |
| 20260507094405 | 59 | 103 | 3.5 | 7.8 | 0.00 | 0.00 | 0.00 | 67 | 1015.6 |
| 20260507093903 | 59 | 122 | 5.2 | 10.4 | 0.00 | 0.00 | 0.00 | 64 | 1015.6 |
| 20260507093404 | 59 | 66 | 5.2 | 8.7 | 0.00 | 0.00 | 0.00 | 67 | 1015.6 |
| 20260507092903 | 59 | 76 | 3.5 | 7.8 | 0.00 | 0.00 | 0.00 | 68 | 1015.6 |
| 20260507092403 | 59 | 38 | 3.5 | 6.1 | 0.00 | 0.00 | 0.00 | 69 | 1015.6 |
| 20260507091904 | 58 | 151 | 1.7 | 6.1 | 0.00 | 0.00 | 0.00 | 67 | 1015.6 |
| 20260507091403 | 58 | 56 | 3.5 | 7.8 | 0.00 | 0.00 | 0.00 | 66 | 1015.6 |
| 20260507090904 | 58 | 138 | 2.6 | 6.1 | 0.00 | 0.00 | 0.00 | 68 | 1015.6 |
| 20260507090404 | 58 | 95 | 2.6 | 6.1 | 0.00 | 0.00 | 0.00 | 67 | 1015.6 |
| 20260507085904 | 57 | 166 | 1.7 | 10.4 | 0.00 | 0.00 | 0.00 | 68 | 1015.6 |
| 20260507085404 | 57 | 116 | 3.5 | 10.4 | 0.00 | 0.00 | 0.00 | 72 | 1015.7 |
| 20260507084904 | 56 | 108 | 2.6 | 6.1 | 0.00 | 0.00 | 0.00 | 73 | 1015.7 |
| 20260507084404 | 56 | 96 | 1.7 | 6.1 | 0.00 | 0.00 | 0.00 | 72 | 1015.6 |
| 20260507083904 | 56 | 141 | 2.6 | 6.1 | 0.00 | 0.00 | 0.00 | 70 | 1015.6 |
| 20260507083404 | 58 | 125 | 2.6 | 5.2 | 0.00 | 0.00 | 0.00 | 73 | 1015.6 |
| 20260507082409 | 55 | 163 | 1.7 | 7.0 | 0.00 | 0.00 | 0.00 | 76 | 1015.6 |
| 20260507081404 | 55 | 104 | 4.3 | 7.0 | 0.00 | 0.00 | 0.00 | 75 | 1015.6 |
| 20260507080904 | 56 | 138 | 3.5 | 7.8 | 0.00 | 0.00 | 0.00 | 75 | 1015.4 |
| 20260507080403 | 56 | 182 | 1.7 | 6.1 | 0.00 | 0.00 | 0.00 | 77 | 1015.4 |
| 20260507075904 | 56 | 72 | 1.7 | 5.2 | 0.00 | 0.00 | 0.00 | 78 | 1015.4 |
| 20260507075404 | 55 | 49 | 1.7 | 7.0 | 0.00 | 0.00 | 0.00 | 79 | 1015.4 |
| 20260507074904 | 55 | 184 | 0.9 | 4.3 | 0.00 | 0.00 | 0.00 | 79 | 1015.4 |
| 20260507074404 | 55 | 48 | 4.3 | 7.8 | 0.00 | 0.00 | 0.00 | 80 | 1015.3 |
| 20260507073904 | 55 | 208 | 3.5 | 7.8 | 0.00 | 0.00 | 0.00 | 79 | 1015.3 |
| 20260507073403 | 55 | 137 | 4.3 | 7.0 | 0.00 | 0.00 | 0.00 | 81 | 1015.3 |
| 20260507072904 | 54 | 185 | 1.7 | 5.2 | 0.00 | 0.00 | 0.00 | 82 | 1015.2 |
| 20260507071904 | 53 | 89 | 4.3 | 6.1 | 0.00 | 0.00 | 0.00 | 83 | 1015.2 |
| 20260507071404 | 53 | 118 | 5.2 | 8.7 | 0.00 | 0.00 | 0.00 | 83 | 1015.2 |
| 20260507070903 | 53 | 74 | 1.7 | 11.3 | 0.00 | 0.00 | 0.00 | 85 | 1015.2 |
| 20260507065904 | 52 | 85 | 1.7 | 6.1 | 0.00 | 0.00 | 0.00 | 88 | 1015.2 |
| 20260507065403 | 51 | 54 | 1.7 | 6.1 | 0.00 | 0.00 | 0.00 | 89 | 1015.2 |
| 20260507064903 | 51 | 81 | 4.3 | 10.4 | 0.00 | 0.00 | 0.00 | 90 | 1015.2 |
| 20260507064404 | 50 | 51 | 4.3 | 7.0 | 0.00 | 0.00 | 0.00 | 90 | 1015.2 |
| 20260507063904 | 50 | 71 | 2.6 | 6.1 | 0.00 | 0.00 | 0.00 | 91 | 1015.2 |
| 20260507063404 | 49 | 87 | 0.9 | 5.2 | 0.00 | 0.00 | 0.00 | 92 | 1015.2 |
| 20260507062404 | 48 | 67 | 0.9 | 2.6 | 0.00 | 0.00 | 0.00 | 92 | 1015.2 |
| 20260507061904 | 48 | 29 | 0.0 | 4.3 | 0.00 | 0.00 | 0.00 | 93 | 1015.1 |
| 20260507061403 | 47 | 83 | 1.7 | 4.3 | 0.00 | 0.00 | 0.00 | 93 | 1015.0 |
| 20260507060904 | 46 | 74 | 0.0 | 2.6 | 0.00 | 0.00 | 0.00 | 93 | 1015.0 |
| 20260507055404 | 43 | 339 | 0.0 | 0.9 | 0.00 | 0.00 | 0.00 | 92 | 1015.0 |
| 20260507054904 | 42 | 339 | 0.0 | 0.0 | 0.00 | 0.00 | 0.00 | 92 | 1015.0 |
| 20260507054404 | 42 | 320 | 0.0 | 0.0 | 0.00 | 0.00 | 0.00 | 92 | 1015.0 |
| 20260507053904 | 42 | 320 | 0.0 | 0.0 | 0.00 | 0.00 | 0.00 | 92 | 1015.0 |
| 20260507053404 | 42 | 320 | 0.0 | 0.0 | 0.00 | 0.00 | 0.00 | 92 | 1015.0 |
| 20260507052404 | 41 | 301 | 0.0 | 0.0 | 0.00 | 0.00 | 0.00 | 92 | 1014.9 |
| 20260507051904 | 41 | 308 | 0.0 | 0.9 | 0.00 | 0.00 | 0.00 | 92 | 1014.9 |
| 20260507051404 | 40 | 295 | 0.0 | 0.0 | 0.00 | 0.00 | 0.00 | 92 | 1014.8 |
| 20260507050904 | 39 | 295 | 0.0 | 0.0 | 0.00 | 0.00 | 0.00 | 92 | 1014.8 |
| 20260507050404 | 39 | 295 | 0.0 | 0.9 | 0.00 | 0.00 | 0.00 | 92 | 1014.8 |
| 20260507045905 | 39 | 210 | 0.0 | 0.0 | 0.00 | 0.00 | 0.00 | 92 | 1014.8 |
| 20260507045404 | 39 | 210 | 0.0 | 0.9 | 0.00 | 0.00 | 0.00 | 92 | 1014.8 |
| 20260507044904 | 39 | 141 | 0.0 | 0.0 | 0.00 | 0.00 | 0.00 | 92 | 1014.8 |
| 20260507043904 | 38 | 141 | 0.0 | 0.0 | 0.00 | 0.00 | 0.00 | 91 | 1014.7 |
| 20260507043404 | 38 | 141 | 0.0 | 0.0 | 0.00 | 0.00 | 0.00 | 92 | 1014.7 |
| 20260507042903 | 38 | 141 | 0.0 | 0.0 | 0.00 | 0.00 | 0.00 | 92 | 1014.7 |
| 20260507041404 | 38 | 104 | 0.0 | 0.0 | 0.00 | 0.00 | 0.00 | 91 | 1014.7 |
| 20260507040904 | 38 | 79 | 0.0 | 0.0 | 0.00 | 0.00 | 0.00 | 91 | 1014.7 |
| 20260507035903 | 38 | 79 | 0.0 | 0.0 | 0.00 | 0.00 | 0.00 | 91 | 1014.7 |
| 20260507035403 | 38 | 79 | 0.0 | 0.0 | 0.00 | 0.00 | 0.00 | 91 | 1014.7 |
| 20260507034904 | 39 | 80 | 0.0 | 0.0 | 0.00 | 0.00 | 0.00 | 91 | 1014.7 |
| 20260507034404 | 39 | 80 | 0.0 | 0.0 | 0.00 | 0.00 | 0.00 | 91 | 1014.7 |
| 20260507033904 | 39 | 80 | 0.0 | 0.0 | 0.00 | 0.00 | 0.00 | 91 | 1014.6 |
| 20260507033404 | 39 | 80 | 0.0 | 0.0 | 0.00 | 0.00 | 0.00 | 91 | 1014.6 |
| 20260507032904 | 39 | 80 | 0.0 | 0.0 | 0.00 | 0.00 | 0.00 | 91 | 1014.6 |
| 20260507032404 | 39 | 80 | 0.0 | 0.0 | 0.00 | 0.00 | 0.00 | 91 | 1014.5 |
| 20260507031904 | 39 | 80 | 0.0 | 0.0 | 0.00 | 0.00 | 0.00 | 91 | 1014.5 |
| 20260507030904 | 39 | 80 | 0.0 | 0.0 | 0.00 | 0.00 | 0.00 | 90 | 1014.5 |
| 20260507025904 | 39 | 80 | 0.0 | 0.0 | 0.00 | 0.00 | 0.00 | 90 | 1014.6 |
| 20260507025404 | 39 | 80 | 0.0 | 0.0 | 0.00 | 0.00 | 0.00 | 90 | 1014.6 |
| 20260507024904 | 40 | 80 | 0.0 | 0.0 | 0.00 | 0.00 | 0.00 | 90 | 1014.4 |
| 20260507024403 | 40 | 80 | 0.0 | 0.0 | 0.00 | 0.00 | 0.00 | 90 | 1014.4 |
| 20260507023904 | 41 | 80 | 0.0 | 0.0 | 0.00 | 0.00 | 0.00 | 90 | 1014.4 |
| 20260507023404 | 41 | 80 | 0.0 | 0.0 | 0.00 | 0.00 | 0.00 | 91 | 1014.4 |
| 20260507022904 | 40 | 80 | 0.0 | 0.0 | 0.00 | 0.00 | 0.00 | 90 | 1014.4 |
| 20260507022404 | 40 | 80 | 0.0 | 0.0 | 0.00 | 0.00 | 0.00 | 90 | 1014.4 |
| 20260507021404 | 40 | 80 | 0.0 | 0.0 | 0.00 | 0.00 | 0.00 | 90 | 1014.4 |
| 20260507020904 | 40 | 80 | 0.0 | 0.0 | 0.00 | 0.00 | 0.00 | 90 | 1014.3 |
| 20260507020403 | 40 | 79 | 0.0 | 0.0 | 0.00 | 0.00 | 0.00 | 90 | 1014.3 |
| 20260507015904 | 40 | 80 | 0.0 | 0.0 | 0.00 | 0.00 | 0.00 | 89 | 1014.3 |
| 20260507015404 | 40 | 80 | 0.0 | 0.0 | 0.00 | 0.00 | 0.00 | 89 | 1014.3 |
| 20260507014904 | 40 | 80 | 0.0 | 0.0 | 0.00 | 0.00 | 0.00 | 90 | 1014.3 |
| 20260507014403 | 40 | 80 | 0.0 | 0.0 | 0.00 | 0.00 | 0.00 | 90 | 1014.3 |
| 20260507013404 | 40 | 80 | 0.0 | 0.0 | 0.00 | 0.00 | 0.00 | 89 | 1014.2 |
| 20260507012903 | 41 | 80 | 0.0 | 0.0 | 0.00 | 0.00 | 0.00 | 88 | 1014.2 |
| 20260507012404 | 41 | 80 | 0.0 | 0.0 | 0.00 | 0.00 | 0.00 | 89 | 1014.2 |
| 20260507011903 | 41 | 80 | 0.0 | 0.0 | 0.00 | 0.00 | 0.00 | 89 | 1014.3 |
| 20260507011404 | 41 | 80 | 0.0 | 0.0 | 0.00 | 0.00 | 0.00 | 88 | 1014.4 |
| 20260507010904 | 41 | 80 | 0.0 | 0.0 | 0.00 | 0.00 | 0.00 | 88 | 1014.4 |
| 20260507010404 | 42 | 80 | 0.0 | 0.0 | 0.00 | 0.00 | 0.00 | 88 | 1014.4 |
| 20260507005903 | 42 | 80 | 0.0 | 0.0 | 0.00 | 0.00 | 0.00 | 88 | 1014.4 |
| 20260507005404 | 42 | 80 | 0.0 | 0.0 | 0.00 | 0.00 | 0.00 | 88 | 1014.3 |
| 20260507003904 | 42 | 80 | 0.0 | 0.0 | 0.00 | 0.00 | 0.00 | 87 | 1014.4 |
| 20260507002903 | 43 | 80 | 0.0 | 0.0 | 0.00 | 0.00 | 0.00 | 87 | 1014.4 |
| 20260507002404 | 43 | 80 | 0.0 | 0.0 | 0.00 | 0.00 | 0.00 | 87 | 1014.4 |
| 20260507001903 | 43 | 80 | 0.0 | 0.0 | 0.00 | 0.00 | 0.00 | 87 | 1014.4 |
| 20260507001404 | 43 | 80 | 0.0 | 0.0 | 0.00 | 0.00 | 0.00 | 87 | 1014.4 |
| 20260506235403 | 44 | 80 | 0.0 | 0.0 | 0.00 | 0.00 | 0.00 | 86 | 1014.5 |
| 20260506233904 | 45 | 80 | 0.0 | 0.0 | 0.00 | 0.00 | 0.00 | 86 | 1014.4 |
| 20260506233403 | 45 | 80 | 0.0 | 0.0 | 0.00 | 0.00 | 0.00 | 86 | 1014.4 |
| 20260506232904 | 45 | 80 | 0.0 | 0.0 | 0.00 | 0.00 | 0.00 | 86 | 1014.4 |
| 20260506232404 | 45 | 80 | 0.0 | 0.0 | 0.00 | 0.00 | 0.00 | 85 | 1014.4 |
| 20260506231904 | 46 | 80 | 0.0 | 0.0 | 0.00 | 0.00 | 0.00 | 85 | 1014.4 |
| 20260506231404 | 46 | 80 | 0.0 | 0.0 | 0.00 | 0.00 | 0.00 | 85 | 1014.4 |
| 20260506230903 | 46 | 80 | 0.0 | 0.0 | 0.00 | 0.00 | 0.00 | 84 | 1014.3 |
| 20260506230404 | 46 | 80 | 0.0 | 0.0 | 0.00 | 0.00 | 0.00 | 83 | 1014.2 |
| 20260506225904 | 47 | 80 | 0.0 | 0.0 | 0.00 | 0.00 | 0.00 | 83 | 1014.2 |
| 20260506225404 | 47 | 79 | 0.0 | 0.0 | 0.00 | 0.00 | 0.00 | 83 | 1014.2 |
| 20260506224904 | 47 | 80 | 0.0 | 0.0 | 0.00 | 0.00 | 0.00 | 83 | 1014.2 |
| 20260506224404 | 48 | 79 | 0.0 | 0.0 | 0.00 | 0.00 | 0.00 | 82 | 1014.2 |